Simultaneous Nadir Overpasses (SNOs) Predictions

Prediction of SNOs between GOES-16 and LANDSAT-8 Satellite Orbit:

Table of predicted SNOs for the next 14.0 days since TLE Epoch: 12/24/2022
Index Date Time (GOES-16) GOES-16 Lat,Lon LANDSAT-8 Lat,Lon Distance(km) Time Diff (sec)
1 12/25/2022 15:15:39 -0.03, -75.20 0.02, -75.39 21.23 80
2 12/27/2022 15:00:48 -0.02, -75.21 -0.60, -72.43 315.96 80
3 12/28/2022 03:24:52 0.02, -75.21 -0.52, -77.62 275.28 80
4 12/30/2022 03:10:01 0.02, -75.23 0.13, -74.67 63.30 80
5 01/01/2023 02:57:50 0.02, -75.26 0.80, -71.72 402.63 80
6 01/01/2023 15:21:45 -0.02, -75.28 0.32, -76.87 181.34 80
7 01/03/2023 15:06:53 -0.02, -75.31 -0.32, -73.92 158.62 80
8 01/04/2023 03:30:57 0.02, -75.31 -0.78, -79.11 431.93 80
9 01/05/2023 14:54:41 -0.02, -75.35 -0.98, -70.96 499.19 80
10 01/06/2023 03:18:44 0.02, -75.35 -0.17, -76.14 91.24 80
